Hlavní strana
METAR-TAF:

METAR-TAF

Letiště :

Michael J. Smith Field

Beaufort, Severní Karolína, Spojené státy americké

zeměpisná šířka: 34-44-01N, zeměpisná délka: 076-39-38W, výška: 3 m

Aktuální stav počasí

Zpráva byla vytvořena před 1 hodinou a 1 minutami, v 08:58 UTC
Jihojihozápadní vítr 4 kt
Teplota 26°C
Vlhkost vzduchu 89%
Tlak 1018 hPa
Viditelnost: 16.1 km
Jasno

METAR: KMRH 070858Z AUTO 21004KT 10SM CLR 26/24 A3005 RMK AO2 SLP177 T02610244 58002 $

Čas: 05:59 (09:59 UTC)


TAF: chybějící

Stav a předpovědi počasí z více než 4 000 letišť (zprávy METAR a TAF).

Červené a žluté tečky na mapě představují dostupné meteorologické stanice.

Když kurzor umístíte na tečku, zobrazí se název stanice.

Pak kliknutím zobrazíte stav a předpověď počasí.

Chcete-li změnit mapu, kliknutím na zelené tlačítko se znaménkem +mapu přiblížíte, kliknutím na zelené tlačítko se znaménkem – mapu oddálíte a kliknutím na zelené šipky přejdete na sousední mapy.


METAR-TAF: